Torna al catalogo

STARLINK-32024

AttivoComunicazioniVLEO
NORAD 60112·PAYLOAD·🇺🇸 United States

Lanciato Jun 23, 2024 da Cape Canaveral Space Force Station

Loading…

Prossimi Passaggi (prossime 24 ore)

TLE

AggiornatoSource: CelesTrak SupGP

Epoca: Sep 14, 2026, 14:00 UTC

1 60112C 24117X   26257.58381944 -.00023739  00000+0 -70128-3 0  2572
2 60112  53.1565 237.6302 0001145  98.5888   7.8115 15.34407244    14

Traccia STARLINK-32024 in tempo reale con AllMySat

Download on the App Store